This is the latest recevied weather packets stored in our database for station/object KA9CBS. If no packets are shown the sender has not sent any weather packets the latest 10 day(s).
| Time | Temp. | Humidity | Pressure | Rain* | Wind** | Luminosity | Snow |
|---|---|---|---|---|---|---|---|
| 1787627790 | 21.11° C | 77% | 1020.4 hPa | 0 mm | - | 0 W/m² | - |
| 1787627485 | 21.11° C | 77% | 1020.2 hPa | 0 mm | - | 0 W/m² | - |
| 1787627180 | 21.67° C | 76% | 1020.2 hPa | 0 mm | - | 0 W/m² | - |
| 1787626878 | 21.67° C | 75% | 1020.4 hPa | 0 mm | - | 0 W/m² | - |
| 1787626576 | 21.67° C | 75% | 1020.5 hPa | 0 mm | - | 0 W/m² | - |
| 1787626271 | 21.67° C | 75% | 1020.2 hPa | 0 mm | - | 0 W/m² | - |
| 1787625971 | 21.67° C | 75% | 1020.4 hPa | 0 mm | - | 0 W/m² | - |
| 1787625667 | 21.67° C | 75% | 1020.1 hPa | 0 mm | - | 0 W/m² | - |
| 1787625362 | 21.67° C | 75% | 1020 hPa | 0 mm | - | 0 W/m² | - |
| 1787625059 | 21.67° C | 75% | 1019.7 hPa | 0 mm | - | 0 W/m² | - |
| 1787624754 | 21.67° C | 76% | 1019.9 hPa | 0 mm | - | 0 W/m² | - |
| 1787624454 | 21.11° C | 77% | 1020.1 hPa | 0 mm | - | 0 W/m² | - |
| 1787624150 | 21.11° C | 78% | 1019.7 hPa | 0 mm | - | 0 W/m² | - |
| 1787623845 | 21.11° C | 80% | 1020.1 hPa | 0 mm | - | 0 W/m² | - |
| 1787623543 | 20.56° C | 83% | 1020.1 hPa | 0 mm | - | 0 W/m² | - |
| 1787623238 | 21.11° C | 83% | 1020 hPa | 0 mm | - | 0 W/m² | - |
| 1787622932 | 21.11° C | 83% | 1019.7 hPa | 0 mm | - | 0 W/m² | - |
| 1787622629 | 21.11° C | 82% | 1019.6 hPa | 0 mm | - | 0 W/m² | - |
| 1787622326 | 21.11° C | 81% | 1019.4 hPa | 0 mm | - | 0 W/m² | - |
| 1787622020 | 21.67° C | 80% | 1019.3 hPa | 0 mm | - | 0 W/m² | - |
| 1787621719 | 21.67° C | 80% | 1019.3 hPa | 0 mm | - | 0 W/m² | - |
| 1787621415 | 21.67° C | 79% | 1019.1 hPa | 0 mm | - | 0 W/m² | - |
| 1787621111 | 22.22° C | 80% | 1019.1 hPa | 0 mm | - | 0 W/m² | - |
| 1787620807 | 22.22° C | 76% | 1019.1 hPa | 0 mm | - | 0 W/m² | - |
| 1787620501 | 22.78° C | 76% | 1019.1 hPa | 0 mm | - | 0 W/m² | - |
* Rain latest hour (hover to see other rain measurements)
** Current wind speed in m/s (hover to see current wind gust speed)